Vorticity
15 19 19 13 3 -5 -10 -11 -6 0 7 15 18 18 16 13 9 6 3 -0 -3 -2 2 10 15 17 15 7 -2 -1 6 13 10 6 4 5 7 6 4 4 11 18 20 14 13 11 8 5 2 1 2 3 4 4 4 2 1 0 1 3 6 8 10 11 11 10 10 9 8
10 15 18 18 12 4 -4 -10 -8 -3 4 10 14 16 18 18 14 7 1 -3 -5 -3 2 9 13 15 16 14 5 -0 -2 3 3 2 1 2 1 0 -1 -1 2 10 18 19 12 7 4 2 0 0 1 3 3 2 2 0 -1 -0 2 6 8 10 11 12 10 10 8 7 6
4 8 12 15 15 12 6 0 -2 -2 1 4 7 10 14 18 14 7 -1 -6 -7 -6 -2 3 8 13 15 16 12 5 -2 -4 -3 -3 -2 0 2 2 3 2 -2 2 12 24 14 7 2 0 -0 0 1 2 2 1 0 -0 0 2 5 8 10 11 12 11 10 8 7 6 5
10 11 12 13 14 15 15 14 12 9 6 4 4 6 8 11 9 3 -3 -6 -7 -7 -5 -1 6 12 16 18 16 9 0 -7 -7 -6 -4 -1 3 6 8 9 6 5 9 23 20 11 3 -1 -1 0 2 2 1 1 0 1 3 6 8 10 10 11 10 9 8 7 6 5 4
20 21 21 20 19 19 20 22 26 26 23 16 11 8 7 6 3 0 -2 -4 -4 -3 -0 4 10 14 18 20 17 10 1 -8 -9 -8 -5 0 8 13 17 20 16 12 12 18 24 19 11 2 1 1 2 1 1 2 3 4 6 8 10 11 11 10 9 7 6 6 5 4 4
27 27 28 28 26 25 24 27 32 36 37 32 23 15 9 4 2 1 2 3 6 9 12 15 17 19 21 21 17 9 0 -8 -10 -8 -3 5 17 24 27 24 16 9 5 7 20 25 23 12 5 2 2 2 3 5 6 8 9 9 10 10 10 8 7 6 5 4 4 4 5
28 30 31 32 30 28 27 27 32 36 39 37 29 20 12 7 6 7 10 14 18 21 23 24 24 24 24 23 18 10 1 -6 -5 -2 4 13 25 28 24 12 4 -2 -3 2 18 29 31 21 11 7 7 8 10 11 11 11 11 11 10 10 8 7 6 4 3 3 4 4 5
23 27 28 26 22 21 21 24 29 33 35 35 30 24 20 17 17 19 21 23 25 26 27 27 27 27 27 27 24 17 11 6 6 9 13 20 25 20 9 -4 -6 -6 -1 9 25 34 35 29 21 18 17 18 17 16 14 12 12 11 10 9 7 6 6 4 4 4 4 5 6
13 14 12 8 7 9 15 23 28 29 30 28 27 26 26 28 29 29 29 28 26 25 24 24 25 27 30 32 30 27 23 19 17 17 18 21 17 7 -4 -11 -7 -1 8 21 34 37 35 28 23 19 16 13 10 7 7 8 10 10 10 8 7 6 6 6 5 5 6 7 7
7 6 3 1 3 10 17 25 25 22 18 16 17 20 25 29 31 32 32 30 28 26 24 24 26 28 29 29 27 24 21 18 17 17 17 15 6 -3 -9 -8 -0 8 16 23 24 20 14 10 8 6 2 -1 -2 -1 3 9 12 13 12 10 8 8 8 8 7 7 8 8 7
10 10 7 5 7 13 18 22 18 13 8 5 7 12 19 26 30 33 34 33 32 30 27 24 22 20 19 18 16 12 10 9 12 14 15 10 0 -6 -6 -1 6 10 9 3 -2 -4 -3 1 1 -2 -4 -4 -0 4 9 14 17 16 15 13 12 11 10 9 9 9 8 8 6
11 13 11 8 7 9 12 14 12 8 4 2 2 6 13 21 26 29 30 30 27 22 18 13 11 10 10 10 11 12 14 16 17 18 18 14 6 2 2 5 4 0 -6 -14 -14 -6 3 6 0 -4 -4 -0 6 11 14 16 18 18 17 15 15 14 12 10 9 9 8 7 8
7 11 10 6 4 4 5 8 8 8 6 2 0 1 4 10 14 16 16 13 8 5 5 7 8 8 7 6 7 11 18 26 30 31 31 27 19 12 6 1 -4 -10 -15 -18 -9 1 6 1 -4 -4 -1 6 11 14 16 16 17 17 18 17 16 15 13 11 10 10 10 11 13
1 5 6 4 1 -1 -0 3 6 8 7 4 0 -3 -4 -3 -1 0 -0 -3 -6 -5 -2 3 6 7 7 5 2 3 7 16 25 31 32 29 20 10 1 -6 -9 -12 -12 -9 -2 2 2 -2 -2 2 8 14 15 16 16 17 17 18 19 18 16 14 13 13 13 13 13 14 13
-3 -1 1 2 0 -2 -2 -1 2 5 5 3 -2 -5 -8 -9 -7 -5 -4 -4 -4 -4 -2 2 4 6 7 6 2 -1 -2 0 7 12 15 13 6 -1 -6 -9 -9 -8 -5 -1 1 3 5 7 10 14 17 18 17 17 17 18 17 18 19 19 16 14 13 13 13 12 11 9 8
-4 -5 -4 -1 -1 -2 -4 -5 -3 -2 -2 -2 -5 -7 -7 -6 -3 0 2 3 3 2 3 4 5 7 8 8 6 4 0 -3 -3 -3 -3 -5 -8 -10 -11 -10 -8 -4 -1 -1 2 7 13 18 20 21 21 19 18 17 18 19 18 18 18 18 15 13 11 10 7 6 4 4 4
-4 -5 -5 -4 -4 -4 -5 -7 -7 -7 -6 -6 -6 -5 -3 0 4 7 8 8 6 5 5 5 6 8 10 11 10 9 7 4 -0 -3 -6 -7 -9 -8 -7 -5 -3 -1 1 2 7 14 20 24 25 24 22 20 19 19 20 20 19 18 17 14 11 8 5 3 2 2 2 4 6
-4 -4 -4 -5 -5 -5 -6 -7 -8 -7 -6 -4 -2 -0 2 5 8 10 10 9 7 6 5 5 6 7 8 10 11 10 10 8 5 3 1 -0 -1 -1 -0 1 3 4 7 10 15 20 23 25 25 24 23 22 22 22 21 20 17 14 11 7 4 2 1 1 2 4 6 8 10
-1 -1 -2 -2 -2 -3 -4 -5 -5 -4 -2 1 3 6 7 9 10 10 8 7 7 7 6 5 4 4 4 5 5 6 6 6 5 5 4 4 3 3 3 5 7 10 13 16 20 22 24 23 22 22 21 21 20 18 16 13 9 6 2 -0 -1 -0 2 4 7 9 11 12 12
4 4 3 2 2 1 0 0 2 3 5 7 8 9 10 10 8 6 5 4 6 7 7 6 5 3 2 2 1 2 2 3 4 5 6 6 6 6 7 8 11 13 16 18 20 21 21 19 17 16 14 13 10 7 5 3 1 -2 -4 -4 -1 2 6 9 11 13 13 14 13
6 6 6 5 5 6 7 9 10 11 12 12 11 10 8 7 5 4 4 4 4 5 6 6 5 5 4 4 3 3 4 5 7 8 10 10 10 10 9 9 11 12 14 16 17 17 17 14 12 8 5 1 -2 -3 -2 -1 -2 -3 -3 -2 2 7 10 12 13 14 14 14 13
5 5 6 6 7 8 10 13 15 15 15 14 12 9 6 4 3 3 3 3 3 3 4 4 5 6 7 7 6 6 7 8 9 10 11 12 11 10 8 8 9 11 13 14 14 15 15 13 8 3 -3 -7 -8 -7 -5 -1 -0 0 1 4 8 11 14 15 15 15 14 13 12
4 4 5 5 6 8 10 12 14 14 14 12 10 7 5 4 3 3 3 3 3 3 3 3 3 3 4 4 5 7 8 8 9 10 11 12 10 9 9 10 12 14 15 17 15 13 10 9 2 -4 -9 -11 -11 -9 -5 0 3 4 6 9 13 15 16 16 16 15 14 13 11
3 3 4 4 4 6 9 12 12 11 9 7 6 6 5 5 4 4 4 4 5 5 5 5 5 4 4 3 4 5 5 6 8 10 10 10 10 11 12 13 16 18 20 21 18 14 7 0 -7 -12 -14 -15 -13 -10 -4 3 6 8 10 13 15 16 16 16 16 14 13 11 10
3 4 5 6 7 10 12 12 10 7 5 4 4 4 5 6 6 6 6 6 6 6 6 7 7 7 7 6 6 6 7 8 8 9 9 10 11 12 14 17 19 20 20 19 16 9 0 -10 -14 -15 -15 -16 -14 -8 -0 7 9 12 14 17 17 16 16 15 14 13 11 10 9
4 6 9 11 11 12 12 11 8 5 3 2 2 3 5 7 8 9 8 8 7 7 7 8 9 10 9 8 8 7 8 8 9 9 10 11 11 12 13 17 18 17 15 11 6 -1 -10 -16 -15 -13 -12 -13 -10 -4 4 9 12 14 17 18 17 15 14 13 12 11 10 9 8
7 7 8 9 10 11 10 8 6 4 2 2 3 4 6 8 9 10 10 9 8 8 8 9 10 11 11 10 9 9 9 10 11 12 13 14 13 13 14 17 16 14 10 5 -1 -8 -13 -14 -10 -9 -10 -9 -3 3 7 10 14 17 18 17 15 14 12 11 10 9 8 8 7
10 9 8 7 8 8 8 5 4 3 4 5 6 7 8 8 7 7 6 6 6 7 8 10 12 13 14 15 15 16 16 17 18 18 18 17 16 16 17 17 15 13 9 3 -5 -10 -10 -7 -8 -8 -7 -1 4 8 10 14 17 18 17 15 13 11 10 8 7 6 6 6 6
11 10 10 9 9 8 6 4 4 5 7 9 10 10 9 8 5 4 3 3 5 8 12 16 18 20 21 22 23 23 22 22 21 20 18 17 17 17 16 14 12 9 4 -3 -7 -8 -7 -8 -9 -5 0 6 9 12 16 19 19 17 14 12 10 8 7 6 5 5 5 5 5
14 13 12 10 8 6 6 6 7 10 12 14 14 14 13 12 10 9 10 11 15 18 20 21 21 21 21 21 20 19 18 18 17 16 14 13 12 10 8 6 2 -1 -5 -7 -7 -8 -10 -10 -3 3 8 12 14 18 20 20 17 14 11 9 7 6 6 5 5 6 6 6 7
13 13 13 12 13 13 13 13 14 15 16 17 17 18 18 18 18 18 19 20 21 21 19 18 17 16 14 12 11 10 10 8 7 6 5 3 1 -1 -4 -6 -8 -8 -9 -10 -11 -10 -6 1 7 12 14 17 20 21 19 17 14 11 8 7 6 6 6 6 7 7 8 8 9
15 16 16 16 16 16 15 15 16 16 17 18 18 18 18 19 19 19 18 17 15 13 12 11 9 7 6 5 4 3 2 0 -0 -1 -2 -4 -5 -6 -7 -8 -8 -8 -7 -6 -2 2 8 12 15 17 19 21 20 18 16 12 10 8 7 6 6 7 7 8 8 9 10 10 11
14 16 17 19 20 19 18 18 18 18 17 15 14 13 13 13 12 12 11 10 9 7 6 4 3 1 0 0 0 0 -0 -1 0 1 2 0 -1 -2 -3 -3 -2 -0 3 7 11 14 16 18 20 21 21 19 16 14 11 9 8 7 7 7 7 8 8 9 10 10 11 12 12
13 12 12 13 14 17 19 21 20 19 17 14 12 10 9 8 7 7 6 5 4 3 2 1 -0 -2 -2 -2 -0 1 2 2 4 5 5 4 2 1 1 2 3 4 6 9 12 16 19 22 21 20 18 15 12 10 8 7 7 7 8 8 9 9 10 10 11 12 12 13 12
14 11 8 5 4 6 9 12 13 13 12 11 9 7 6 5 4 2 1 0 -0 -1 -2 -3 -3 -3 -3 -2 -1 1 3 5 6 7 8 9 9 10 12 14 15 14 12 10 11 13 16 17 16 14 12 10 9 8 8 8 8 8 9 10 10 11 11 12 13 13 13 12 12
14 13 11 6 2 -2 -4 -4 -2 -1 -0 -0 -1 -1 -2 -2 -4 -5 -6 -7 -8 -8 -7 -6 -5 -4 -2 -0 2 5 8 10 12 13 15 17 18 19 20 21 21 21 19 18 15 14 12 10 10 9 9 8 8 9 9 9 10 10 10 11 12 12 12 13 13 12 12 11 10
12 13 13 12 8 3 -2 -6 -8 -8 -8 -8 -8 -7 -7 -7 -8 -9 -10 -11 -10 -8 -6 -2 1 4 6 8 10 12 14 15 15 16 16 16 16 16 16 17 17 17 16 16 14 12 10 8 8 8 8 8 9 10 10 11 11 12 12 12 12 13 13 12 12 11 10 10 10
6 8 10 12 12 10 8 5 3 1 1 0 0 0 0 0 -0 -1 -2 -2 0 4 7 9 11 12 12 13 13 13 13 13 12 12 12 12 12 12 11 11 11 11 11 10 10 9 9 8 9 9 10 10 10 11 11 11 12 12 12 12 12 12 12 11 10 10 10 9 10
2 3 5 7 8 10 10 10 9 9 9 9 9 9 9 9 9 9 10 10 12 12 12 12 12 12 11 10 10 10 9 9 9 9 9 9 9 9 9 8 8 8 8 8 8 8 9 9 10 11 11 11 11 11 11 11 11 11 12 12 11 11 11 10 10 10 10 10 10
2 2 3 3 4 5 6 6 7 8 8 9 10 10 10 10 10 10 10 10 10 10 9 8 8 8 8 8 8 8 8 8 8 9 8 8 8 8 8 7 7 7 8 8 8 9 10 10 11 11 12 12 11 11 11 10 10 10 11 11 10 10 10 11 11 11 11 11 12
6 6 5 5 4 4 4 5 5 5 6 6 6 6 6 6 6 6 6 6 6 6 6 6 6 7 7 8 8 8 8 8 9 9 9 8 8 8 8 7 7 8 8 9 9 10 10 11 11 11 11 11 10 10 10 9 9 10 10 11 11 11 11 11 12 12 12 13 13
Height
5729 5730 5732 5734 5735 5736 5737 5737 5738 5739 5740 5741 5742 5744 5746 5748 5749 5750 5752 5754 5755 5756 5758 5760 5762 5763 5764 5766 5769 5770 5769 5768 5769 5771 5773 5775 5777 5778 5778 5778 5775 5771 5769 5769 5770 5771 5772 5773 5773 5773 5774 5774 5775 5775 5775 5776 5776 5776 5777 5777 5777 5777 5777 5777 5777 5777 5777 5777 5777
5728 5729 5731 5733 5734 5735 5735 5735 5736 5736 5737 5738 5739 5741 5743 5745 5747 5748 5750 5751 5753 5754 5757 5758 5760 5761 5762 5763 5765 5768 5768 5767 5768 5770 5771 5772 5773 5773 5773 5773 5772 5769 5767 5767 5768 5769 5770 5770 5771 5771 5771 5772 5772 5773 5773 5773 5774 5774 5774 5774 5774 5774 5774 5774 5774 5774 5774 5774 5774
5728 5730 5733 5735 5737 5737 5736 5734 5733 5734 5735 5736 5737 5739 5741 5743 5745 5747 5748 5749 5751 5753 5754 5756 5758 5759 5760 5761 5762 5763 5765 5767 5767 5768 5768 5769 5769 5769 5769 5769 5769 5768 5766 5765 5765 5766 5767 5768 5768 5768 5768 5769 5770 5770 5771 5771 5772 5772 5772 5772 5772 5772 5772 5771 5771 5772 5772 5772 5772
5726 5728 5730 5732 5735 5736 5736 5734 5732 5732 5733 5733 5735 5737 5738 5740 5743 5744 5746 5748 5749 5750 5752 5753 5755 5756 5757 5758 5758 5760 5762 5763 5765 5765 5764 5764 5765 5766 5767 5767 5766 5765 5764 5762 5762 5763 5764 5764 5765 5766 5766 5767 5767 5768 5768 5769 5769 5769 5769 5769 5769 5769 5769 5769 5769 5769 5769 5769 5769
5723 5724 5726 5728 5731 5733 5733 5733 5731 5730 5731 5732 5733 5735 5737 5739 5741 5743 5744 5746 5747 5748 5749 5751 5752 5753 5753 5754 5755 5757 5758 5759 5760 5761 5761 5761 5762 5765 5767 5768 5766 5765 5763 5761 5759 5760 5761 5762 5762 5763 5764 5764 5765 5766 5766 5766 5766 5766 5766 5766 5766 5766 5766 5766 5767 5767 5767 5767 5766
5719 5720 5722 5724 5726 5728 5730 5729 5729 5728 5728 5729 5731 5733 5736 5738 5739 5741 5743 5743 5744 5746 5747 5748 5749 5749 5750 5751 5752 5753 5755 5756 5757 5758 5758 5758 5760 5763 5767 5768 5766 5765 5763 5759 5757 5757 5758 5759 5760 5761 5762 5762 5763 5763 5763 5763 5763 5763 5763 5764 5764 5764 5764 5764 5764 5764 5764 5764 5764
5717 5718 5719 5720 5722 5724 5725 5726 5726 5726 5726 5727 5730 5732 5734 5736 5738 5739 5740 5741 5742 5743 5744 5745 5746 5747 5748 5748 5749 5751 5752 5754 5755 5757 5758 5757 5758 5762 5764 5764 5763 5760 5757 5754 5754 5755 5756 5757 5758 5759 5759 5760 5760 5760 5761 5761 5761 5761 5761 5761 5761 5761 5761 5761 5761 5761 5761 5761 5761
5717 5717 5718 5718 5719 5720 5722 5723 5723 5724 5724 5726 5728 5731 5733 5734 5735 5736 5737 5738 5739 5741 5742 5743 5743 5744 5745 5746 5747 5748 5750 5752 5753 5755 5757 5755 5757 5759 5760 5759 5758 5755 5753 5752 5753 5753 5754 5755 5756 5757 5757 5758 5758 5758 5758 5758 5758 5758 5758 5758 5758 5758 5758 5758 5758 5758 5758 5758 5758
5717 5717 5717 5718 5718 5719 5720 5720 5721 5722 5723 5725 5727 5729 5730 5731 5732 5733 5734 5736 5737 5738 5739 5740 5741 5742 5743 5743 5745 5746 5748 5749 5751 5753 5754 5754 5755 5757 5757 5755 5754 5752 5750 5750 5751 5752 5753 5753 5754 5754 5754 5755 5755 5755 5756 5756 5756 5755 5755 5755 5755 5755 5755 5755 5755 5755 5755 5755 5755
5714 5714 5715 5717 5718 5719 5719 5719 5720 5721 5722 5723 5725 5726 5727 5728 5729 5730 5732 5733 5734 5736 5737 5738 5739 5740 5741 5742 5743 5744 5745 5747 5749 5750 5751 5752 5753 5754 5753 5752 5750 5749 5749 5749 5750 5751 5751 5751 5751 5752 5752 5752 5752 5753 5753 5753 5752 5752 5752 5753 5753 5753 5753 5753 5753 5753 5753 5752 5752
5711 5711 5711 5713 5714 5715 5717 5718 5719 5719 5720 5721 5722 5723 5724 5725 5726 5728 5729 5730 5732 5733 5735 5736 5738 5738 5739 5740 5741 5743 5744 5745 5746 5747 5748 5749 5750 5750 5750 5749 5748 5748 5748 5748 5748 5748 5748 5748 5748 5748 5748 5748 5749 5749 5749 5749 5749 5749 5749 5749 5749 5750 5750 5750 5750 5750 5750 5749 5749
5708 5708 5709 5710 5711 5712 5713 5714 5716 5717 5718 5718 5719 5720 5722 5723 5724 5725 5726 5728 5729 5731 5733 5734 5734 5735 5735 5736 5737 5738 5740 5743 5743 5744 5744 5745 5746 5747 5747 5746 5745 5744 5745 5746 5746 5746 5746 5746 5745 5744 5744 5745 5745 5745 5745 5745 5746 5746 5746 5746 5747 5747 5747 5747 5747 5747 5747 5747 5746
5705 5706 5707 5708 5709 5710 5711 5712 5713 5714 5715 5716 5717 5718 5720 5721 5722 5723 5725 5726 5727 5728 5729 5730 5731 5731 5732 5733 5734 5735 5736 5738 5740 5741 5742 5743 5744 5744 5744 5742 5741 5741 5742 5743 5743 5743 5743 5742 5741 5741 5741 5742 5742 5742 5742 5742 5742 5743 5743 5743 5743 5744 5744 5744 5744 5744 5743 5743 5743
5703 5704 5705 5707 5707 5708 5709 5710 5711 5712 5713 5714 5715 5717 5718 5719 5721 5722 5723 5724 5725 5726 5727 5728 5728 5728 5729 5730 5731 5732 5733 5734 5735 5737 5738 5739 5740 5739 5738 5738 5738 5738 5739 5740 5741 5741 5740 5739 5738 5738 5738 5738 5738 5738 5739 5739 5739 5740 5741 5741 5741 5741 5741 5741 5741 5741 5740 5740 5740
5701 5703 5704 5705 5706 5707 5708 5708 5709 5711 5712 5713 5714 5715 5716 5718 5719 5720 5721 5722 5723 5724 5725 5726 5726 5727 5727 5728 5728 5729 5730 5731 5732 5733 5733 5734 5734 5734 5734 5734 5735 5736 5737 5738 5738 5738 5737 5736 5736 5736 5735 5735 5735 5735 5736 5736 5737 5738 5738 5738 5738 5738 5738 5738 5738 5738 5737 5737 5737
5699 5701 5702 5703 5704 5705 5706 5707 5708 5709 5710 5711 5712 5713 5715 5716 5717 5718 5719 5720 5721 5722 5723 5724 5724 5725 5726 5726 5727 5727 5728 5729 5729 5730 5731 5731 5731 5732 5732 5733 5734 5734 5735 5735 5735 5734 5733 5733 5733 5733 5732 5732 5733 5733 5733 5733 5734 5735 5735 5735 5735 5735 5735 5735 5734 5734 5734 5734 5733
5698 5699 5701 5702 5703 5703 5704 5705 5706 5708 5708 5709 5710 5712 5713 5714 5715 5716 5717 5718 5719 5720 5721 5721 5722 5723 5723 5724 5725 5725 5726 5727 5727 5728 5728 5729 5729 5729 5730 5731 5731 5731 5731 5731 5730 5730 5729 5729 5729 5729 5729 5729 5729 5730 5730 5731 5732 5732 5732 5732 5732 5732 5732 5732 5731 5731 5731 5731 5730
5697 5698 5700 5701 5701 5702 5703 5704 5705 5706 5707 5708 5708 5709 5711 5712 5713 5714 5715 5716 5717 5718 5718 5719 5720 5721 5721 5722 5722 5723 5724 5724 5725 5725 5726 5726 5727 5727 5728 5728 5728 5727 5727 5727 5726 5726 5726 5726 5726 5726 5727 5727 5727 5728 5728 5728 5729 5729 5729 5729 5729 5729 5729 5728 5728 5728 5728 5727 5727
5695 5696 5698 5699 5699 5701 5702 5702 5703 5704 5704 5706 5707 5708 5708 5709 5711 5713 5714 5714 5715 5715 5716 5717 5718 5718 5719 5719 5720 5721 5721 5722 5723 5723 5723 5724 5724 5724 5724 5724 5724 5723 5723 5723 5723 5723 5723 5723 5723 5724 5724 5724 5725 5725 5726 5726 5726 5726 5726 5726 5726 5726 5726 5725 5725 5724 5724 5724 5723
5693 5694 5695 5697 5698 5699 5700 5700 5701 5702 5703 5703 5704 5705 5706 5707 5708 5710 5711 5712 5712 5713 5713 5715 5716 5717 5717 5718 5718 5718 5719 5720 5721 5721 5721 5721 5721 5721 5721 5721 5720 5720 5720 5720 5720 5720 5720 5721 5721 5721 5722 5722 5723 5723 5723 5723 5723 5723 5723 5723 5723 5723 5722 5722 5722 5721 5721 5720 5720
5691 5692 5693 5694 5695 5696 5698 5698 5699 5700 5701 5702 5703 5703 5704 5705 5706 5707 5707 5708 5708 5709 5711 5712 5713 5714 5715 5715 5715 5716 5717 5717 5718 5718 5718 5718 5718 5718 5718 5718 5718 5718 5717 5717 5718 5718 5718 5718 5718 5719 5719 5719 5720 5720 5720 5720 5720 5720 5720 5719 5719 5719 5719 5718 5718 5718 5717 5717 5717
5688 5689 5690 5692 5693 5694 5695 5696 5697 5698 5699 5700 5701 5702 5702 5703 5703 5704 5704 5705 5706 5707 5708 5709 5710 5712 5712 5712 5712 5712 5713 5713 5713 5714 5714 5715 5715 5716 5716 5716 5716 5715 5715 5715 5715 5716 5717 5717 5716 5716 5717 5717 5717 5717 5717 5717 5717 5717 5716 5716 5716 5716 5715 5715 5715 5714 5714 5713 5713
5686 5687 5688 5689 5690 5691 5693 5693 5695 5696 5697 5698 5699 5699 5700 5701 5701 5702 5702 5703 5703 5704 5705 5706 5707 5709 5710 5709 5709 5709 5710 5710 5710 5711 5711 5712 5712 5713 5713 5713 5713 5713 5713 5713 5713 5713 5714 5713 5713 5713 5713 5714 5714 5714 5714 5714 5714 5713 5713 5713 5713 5712 5712 5712 5711 5711 5710 5710 5710
5683 5685 5686 5688 5688 5689 5690 5691 5692 5693 5694 5696 5697 5698 5698 5699 5699 5699 5700 5700 5701 5701 5702 5703 5704 5705 5706 5706 5707 5707 5707 5707 5707 5708 5708 5709 5709 5710 5710 5710 5710 5710 5710 5709 5709 5709 5710 5710 5710 5710 5710 5711 5711 5711 5711 5711 5710 5710 5710 5709 5709 5709 5708 5708 5708 5708 5707 5707 5707
5681 5683 5685 5686 5687 5688 5688 5688 5689 5690 5692 5693 5694 5695 5696 5696 5697 5697 5698 5698 5698 5698 5699 5699 5700 5701 5702 5702 5703 5703 5704 5704 5704 5705 5705 5706 5707 5707 5707 5707 5707 5707 5707 5707 5706 5706 5706 5707 5707 5707 5707 5707 5708 5708 5707 5707 5707 5706 5706 5706 5706 5705 5705 5705 5704 5704 5704 5704 5703
5679 5680 5682 5683 5684 5684 5685 5686 5687 5688 5688 5690 5691 5692 5693 5693 5694 5694 5695 5695 5695 5696 5696 5696 5697 5697 5698 5698 5699 5700 5701 5701 5702 5702 5703 5703 5704 5705 5705 5705 5704 5704 5704 5704 5704 5703 5703 5703 5703 5704 5704 5704 5704 5704 5703 5703 5703 5703 5703 5702 5702 5702 5702 5702 5701 5701 5701 5700 5700
5677 5678 5678 5680 5681 5682 5683 5683 5684 5685 5686 5687 5688 5689 5689 5690 5691 5691 5692 5692 5692 5693 5693 5693 5693 5694 5694 5695 5696 5697 5697 5698 5698 5699 5699 5700 5700 5701 5701 5701 5701 5701 5701 5701 5701 5700 5700 5700 5700 5700 5700 5700 5700 5700 5700 5699 5699 5699 5699 5698 5698 5698 5698 5698 5698 5698 5698 5697 5697
5675 5676 5676 5677 5678 5679 5680 5681 5682 5683 5683 5684 5685 5686 5686 5687 5688 5688 5689 5689 5690 5690 5690 5690 5691 5691 5692 5692 5693 5693 5693 5694 5695 5695 5696 5696 5696 5697 5697 5697 5697 5697 5697 5697 5697 5697 5697 5696 5696 5697 5697 5697 5697 5696 5696 5696 5696 5695 5695 5695 5695 5695 5695 5694 5694 5694 5694 5694 5693
5673 5674 5675 5676 5676 5676 5677 5678 5679 5680 5680 5681 5682 5682 5683 5684 5685 5685 5686 5686 5687 5687 5687 5688 5688 5688 5689 5689 5689 5690 5690 5691 5691 5692 5692 5692 5693 5693 5693 5693 5693 5693 5693 5693 5693 5693 5693 5693 5693 5693 5693 5693 5693 5693 5693 5692 5692 5692 5692 5691 5691 5691 5691 5691 5691 5691 5690 5690 5690
5671 5672 5673 5673 5673 5673 5674 5675 5676 5677 5678 5678 5679 5679 5680 5681 5682 5682 5683 5683 5683 5683 5684 5684 5685 5685 5686 5686 5686 5687 5687 5688 5688 5688 5688 5689 5689 5689 5689 5689 5689 5689 5689 5690 5689 5689 5689 5689 5689 5689 5689 5689 5689 5689 5689 5688 5688 5688 5688 5688 5688 5688 5688 5687 5687 5687 5687 5687 5686
5668 5668 5669 5669 5670 5671 5671 5672 5673 5673 5674 5675 5676 5677 5677 5678 5678 5679 5679 5680 5680 5680 5681 5681 5682 5682 5683 5683 5683 5683 5684 5684 5684 5685 5685 5685 5686 5686 5686 5686 5686 5686 5686 5686 5686 5686 5686 5685 5685 5685 5685 5686 5686 5685 5685 5685 5685 5685 5684 5684 5684 5684 5684 5684 5683 5683 5683 5683 5683
5665 5665 5666 5667 5668 5668 5668 5669 5670 5671 5672 5672 5673 5674 5674 5675 5675 5676 5676 5677 5677 5677 5678 5678 5678 5679 5679 5679 5680 5680 5680 5681 5681 5681 5682 5682 5682 5682 5682 5683 5683 5682 5682 5682 5682 5682 5682 5682 5682 5682 5682 5682 5682 5682 5682 5682 5681 5681 5681 5681 5681 5680 5680 5680 5680 5680 5679 5679 5679
5663 5663 5663 5664 5664 5665 5666 5666 5667 5668 5669 5669 5670 5671 5671 5672 5672 5673 5673 5673 5674 5674 5674 5675 5675 5675 5676 5676 5676 5677 5677 5677 5677 5677 5677 5677 5677 5678 5678 5678 5678 5678 5678 5678 5678 5678 5678 5678 5678 5678 5678 5678 5678 5678 5678 5678 5678 5678 5678 5677 5677 5677 5677 5677 5676 5676 5676 5675 5675
5660 5661 5661 5662 5662 5663 5663 5664 5664 5665 5665 5666 5667 5668 5668 5669 5669 5669 5670 5670 5671 5671 5671 5672 5672 5672 5673 5673 5673 5673 5673 5673 5673 5673 5673 5673 5673 5674 5674 5674 5674 5674 5674 5674 5674 5674 5674 5674 5674 5674 5674 5674 5674 5674 5674 5674 5674 5674 5674 5674 5673 5673 5673 5673 5673 5672 5672 5672 5672
5656 5657 5658 5659 5659 5660 5660 5661 5662 5662 5663 5663 5664 5664 5665 5666 5666 5667 5667 5667 5668 5668 5668 5668 5668 5669 5669 5669 5669 5669 5669 5669 5669 5670 5670 5670 5671 5671 5671 5671 5671 5671 5671 5671 5671 5670 5670 5670 5670 5671 5671 5671 5671 5671 5671 5671 5671 5671 5670 5670 5670 5669 5669 5669 5669 5669 5668 5668 5668
5653 5654 5654 5655 5656 5657 5657 5658 5658 5659 5660 5660 5661 5661 5662 5663 5663 5663 5664 5664 5665 5665 5665 5665 5665 5666 5666 5666 5666 5666 5666 5666 5667 5667 5667 5667 5668 5668 5668 5667 5667 5667 5667 5667 5667 5667 5667 5667 5667 5667 5667 5667 5667 5667 5667 5667 5667 5667 5667 5666 5666 5666 5666 5666 5665 5665 5665 5665 5664
5650 5650 5651 5652 5653 5653 5654 5654 5655 5656 5656 5657 5658 5658 5659 5659 5660 5660 5661 5661 5662 5662 5662 5662 5662 5662 5662 5662 5663 5663 5663 5663 5663 5663 5663 5663 5663 5663 5663 5663 5663 5663 5663 5663 5663 5663 5663 5663 5663 5663 5663 5663 5663 5663 5663 5663 5663 5663 5663 5663 5663 5662 5662 5662 5662 5662 5661 5661 5661
5647 5647 5648 5648 5649 5650 5650 5651 5651 5652 5652 5653 5653 5654 5655 5656 5656 5657 5657 5657 5658 5658 5658 5658 5658 5658 5658 5658 5658 5659 5659 5659 5659 5659 5659 5659 5660 5660 5660 5660 5660 5660 5660 5660 5660 5659 5659 5659 5659 5659 5659 5659 5659 5659 5660 5660 5660 5660 5659 5659 5659 5659 5659 5658 5658 5658 5658 5657 5657
5644 5644 5645 5646 5646 5647 5647 5648 5648 5648 5649 5649 5650 5650 5651 5652 5652 5653 5653 5653 5653 5654 5654 5654 5654 5654 5654 5654 5655 5655 5655 5655 5655 5656 5656 5656 5656 5656 5656 5656 5656 5656 5656 5656 5656 5656 5656 5656 5656 5656 5656 5656 5656 5656 5656 5656 5656 5656 5656 5656 5656 5656 5655 5655 5655 5654 5654 5653 5653
5642 5642 5642 5643 5643 5643 5644 5645 5645 5645 5646 5646 5647 5647 5648 5648 5648 5648 5649 5649 5650 5650 5650 5650 5651 5651 5651 5651 5651 5652 5652 5652 5652 5652 5652 5653 5652 5652 5653 5653 5653 5652 5652 5653 5653 5653 5652 5652 5652 5652 5652 5652 5652 5653 5653 5653 5653 5653 5653 5653 5653 5652 5652 5651 5651 5651 5650 5650 5650
5638 5639 5639 5639 5640 5640 5641 5641 5642 5642 5642 5643 5643 5643 5643 5644 5644 5645 5645 5646 5646 5646 5647 5647 5647 5647 5648 5648 5648 5648 5648 5648 5648 5648 5648 5649 5648 5648 5648 5649 5649 5648 5648 5648 5649 5649 5649 5648 5648 5648 5648 5649 5649 5649 5649 5649 5650 5650 5649 5649 5649 5649 5648 5648 5647 5647 5646 5646 5646